FENGYUN 1C DEB, 30069

Orbit data source: Space-Track

FENGYUN 1C DEB, 30069 is space debris in SSO originally from a launch on Mon, 10 May 1999 UTC launched from the Taiyaun Space Center, China (TSC). Fengyun 1C debris stems from the Chinese weather satellite Fengyun-1C, which was intentionally destroyed by a Chinese anti-satellite missile in 2007. This event dramatically increased the amount of space debris, with thousands of trackable fragments posing hazards to satellites and human spaceflight. The Fengyun 1C debris cloud has become a focal point in discussions about space sustainability and the need for international regulations to prevent the creation of new debris.

Loading next visibility...
Identifier
30069, 1999-025PW
Orbit
SSO
Country
Flag of CNCN / PRC
Related business
Manufacturer
Unknown
Mission
Spacecraft
Bus & Motor
Unknown
Mass
Unknown
Launch date (UTC)
1999-05-10 (27 years ago)
Launch vehicle
Unknown
Launch site
Taiyaun Space Center, China (TSC)
Object type
Payload
Rocket body
Debris
Shape & HBR
Unknown shape, 0.2 m
Radar Cross Section
Medium (>0.1 m² and <1 m²)

Expand to show TLE details & history
Last TLE update: 12 hours ago

TLE from 12 hours ago
0 FENGYUN 1C DEB
1 30069U 99025PW  26170.40330278  .00000440  00000-0  29503-3 0  9996
2 30069  98.8198 151.9692 0047704 243.2281 273.1378 14.05386809994962
Epoch: 2026-06-19T09:40Z
TLE epoch observation values (Epoch: 2026-06-19T09:40:45.360Z)
Latitude
23.90011°
Longitude
-76.93066°
Altitude
876.342 km
Speed
7.417 km/s
True Right ascension
22h 23m 33s
True Declination
23° 46' 30"
Sunlit
Object was in daylight at epoch
Visualization orbit readout
Latitude
Unknown
Longitude
Unknown
Altitude
Unknown
Speed
Unknown
Apparent Right ascension
Unknown
Apparent Declination
Unknown
Sunlit
N/A
Visualization observer readout
Local Sidereal Time
08:46:59
Azimuth
Unknown
Elevation
Unknown
Doppler factor
Unknown
Orbital elements
Apogee altitude
906.972 km
Perigee altitude
837.797 km
Semi-major axis
7,250.522 km
Eccentricity
0.00477
Inclination
98.8198°
RAAN
151.9692°
Arg. of periapsis
243.2281°
True anomaly
272.5918°
Mean anomaly
273.1378°
Eccentric anomaly
272.86482°
Mean motion
3.51552 °/min
Orbital period
102.4 mins
BSTAR
0.00029503
Loading maneuver chart data...
Computing Atmospheric mass density...

Documentation

Showing up to 5 results
|